When you browse on this site, cookies collect data to enhance your experience and personalize the content and advertising you see.
Visit our Privacy Policy to learn more. By continuing to use the site, you agree to this use of cookies and data.
  • In Hungary
  • List of Countries
  • For 7 days
  • Water Temperature
  • Satellite Maps
  • Weather Map
  • News
  • Weather Widgets
  • user-avatar
    Login

    Hourly Weather National City

    Today, 20 July, Saturday

    Time Temperature Precipitation Wind Pressure Humidity
    00:00 +21°C° 0 mm 1 mps 755 mmHg 78%
    01:00 +20°C° 0 mm 2 mps 755 mmHg 79%
    02:00 +19°C° 0 mm 2 mps 754 mmHg 80%
    03:00 +19°C° 0 mm 2 mps 754 mmHg 80%
    04:00 +19°C° 0 mm 2 mps 754 mmHg 80%
    05:00 +20°C° 0 mm 2 mps 754 mmHg 75%
    06:00 +21°C° 0 mm 2 mps 754 mmHg 71%
    07:00 +23°C° 0 mm 2 mps 755 mmHg 66%
    08:00 +24°C° 0 mm 3 mps 755 mmHg 59%
    09:00 +26°C° 0 mm 3 mps 755 mmHg 53%
    10:00 +27°C° 0 mm 3 mps 755 mmHg 46%
    11:00 +28°C° 0 mm 4 mps 754 mmHg 44%
    12:00 +29°C° 0 mm 4 mps 754 mmHg 43%
    13:00 +30°C° 0 mm 4 mps 753 mmHg 41%
    14:00 +30°C° 0 mm 4 mps 753 mmHg 41%
    15:00 +29°C° 0 mm 4 mps 753 mmHg 42%
    16:00 +29°C° 0 mm 5 mps 753 mmHg 43%
    17:00 +28°C° 0 mm 4 mps 753 mmHg 51%
    18:00 +26°C° 0 mm 4 mps 753 mmHg 58%
    19:00 +23°C° 0 mm 4 mps 753 mmHg 66%
    20:00 +24°C° 0 mm 3 mps 753 mmHg 68%
    21:00 +22°C° 0 mm 3 mps 753 mmHg 71%
    22:00 +23°C° 0 mm 2 mps 754 mmHg 74%
    23:00 +23°C° 0 mm 2 mps 753 mmHg 73%

    Tomorrow, 21 July, Sunday

    Time Temperature Precipitation Wind Pressure Humidity
    00:00 +23°C° 0 mm 2 mps 753 mmHg 73%
    01:00 +21°C° 0 mm 2 mps 753 mmHg 72%
    02:00 +21°C° 0 mm 2 mps 753 mmHg 72%
    03:00 +21°C° 0 mm 2 mps 753 mmHg 73%
    04:00 +21°C° 0 mm 2 mps 753 mmHg 73%
    05:00 +23°C° 0 mm 2 mps 753 mmHg 70%
    06:00 +24°C° 0 mm 3 mps 753 mmHg 66%
    07:00 +25°C° 0 mm 3 mps 753 mmHg 63%
    08:00 +27°C° 0 mm 3 mps 754 mmHg 56%
    09:00 +29°C° 0 mm 3 mps 754 mmHg 48%
    10:00 +32°C° 0 mm 4 mps 754 mmHg 41%
    11:00 +33°C° 0 mm 4 mps 754 mmHg 39%
    12:00 +34°C° 0 mm 4 mps 753 mmHg 38%
    13:00 +34°C° 0 mm 4 mps 753 mmHg 37%
    14:00 +34°C° 0 mm 4 mps 753 mmHg 37%
    15:00 +34°C° 0 mm 4 mps 753 mmHg 38%
    16:00 +33°C° 0 mm 4 mps 752 mmHg 38%
    17:00 +30°C° 0 mm 3 mps 753 mmHg 45%
    18:00 +28°C° 0 mm 3 mps 753 mmHg 51%
    19:00 +26°C° 0 mm 2 mps 753 mmHg 58%
    20:00 +26°C° 0 mm 2 mps 753 mmHg 60%
    21:00 +26°C° 0 mm 2 mps 754 mmHg 62%
    22:00 +25°C° 0 mm 1 mps 754 mmHg 64%
    23:00 +25°C° 0 mm 1 mps 754 mmHg 64%

    Day after tomorrow, 22 July, Monday

    Time Temperature Precipitation Wind Pressure Humidity
    00:00 +25°C° 0 mm 1 mps 754 mmHg 64%
    01:00 +25°C° 0 mm 1 mps 754 mmHg 65%
    02:00 +25°C° 0.1 mm 1 mps 754 mmHg 65%
    03:00 +25°C° 0.1 mm 1 mps 754 mmHg 66%
    04:00 +25°C° 0.1 mm 1 mps 754 mmHg 67%
    05:00 +25°C° 0.2 mm 1 mps 755 mmHg 64%
    06:00 +26°C° 0.2 mm 1 mps 755 mmHg 61%
    07:00 +27°C° 0.2 mm 1 mps 755 mmHg 59%
    08:00 +29°C° 0 mm 2 mps 755 mmHg 51%
    09:00 +31°C° 0 mm 2 mps 755 mmHg 43%
    10:00 +34°C° 0 mm 2 mps 756 mmHg 35%
    11:00 +35°C° 0 mm 3 mps 755 mmHg 34%
    12:00 +36°C° 0 mm 3 mps 755 mmHg 32%
    13:00 +37°C° 0 mm 4 mps 755 mmHg 30%
    14:00 +36°C° 0 mm 4 mps 755 mmHg 31%
    15:00 +36°C° 0 mm 3 mps 754 mmHg 31%
    16:00 +35°C° 0 mm 3 mps 754 mmHg 31%
    17:00 +34°C° 0 mm 3 mps 754 mmHg 34%
    18:00 +31°C° 0 mm 2 mps 754 mmHg 37%
    19:00 +30°C° 0 mm 2 mps 755 mmHg 40%
    20:00 +29°C° 0 mm 2 mps 755 mmHg 42%
    21:00 +28°C° 0 mm 2 mps 755 mmHg 44%
    22:00 +28°C° 0 mm 1 mps 756 mmHg 46%
    23:00 +27°C° 0 mm 1 mps 756 mmHg 47%

    23 July, Tuesday

    Time Temperature Precipitation Wind Pressure Humidity
    00:00 +27°C° 0 mm 1 mps 756 mmHg 47%
    01:00 +27°C° 0 mm 1 mps 756 mmHg 48%
    02:00 +27°C° 0 mm 1 mps 756 mmHg 49%
    03:00 +27°C° 0 mm 1 mps 756 mmHg 50%
    04:00 +26°C° 0 mm 1 mps 756 mmHg 50%
    05:00 +27°C° 0.1 mm 1 mps 756 mmHg 48%
    06:00 +28°C° 0.1 mm 1 mps 756 mmHg 45%
    07:00 +29°C° 0.1 mm 1 mps 756 mmHg 42%
    08:00 +30°C° 0 mm 2 mps 756 mmHg 38%
    09:00 +32°C° 0 mm 2 mps 756 mmHg 34%
    10:00 +35°C° 0 mm 3 mps 756 mmHg 30%
    11:00 +35°C° 0 mm 3 mps 756 mmHg 29%
    12:00 +35°C° 0 mm 4 mps 756 mmHg 28%
    13:00 +36°C° 0 mm 4 mps 755 mmHg 27%
    14:00 +35°C° 0.2 mm 3 mps 755 mmHg 30%
    15:00 +34°C° 0.2 mm 3 mps 755 mmHg 32%
    16:00 +32°C° 0.2 mm 2 mps 754 mmHg 35%
    17:00 +32°C° 0.1 mm 2 mps 754 mmHg 36%
    18:00 +31°C° 0.1 mm 2 mps 754 mmHg 37%
    19:00 +31°C° 0.1 mm 2 mps 754 mmHg 38%
    20:00 +30°C° 0 mm 2 mps 755 mmHg 40%
    21:00 +30°C° 0 mm 2 mps 755 mmHg 41%
    22:00 +29°C° 0 mm 2 mps 755 mmHg 43%
    23:00 +29°C° 0.2 mm 2 mps 755 mmHg 45%

    24 July, Wednesday

    Time Temperature Precipitation Wind Pressure Humidity
    00:00 +28°C° 0.2 mm 2 mps 755 mmHg 48%
    01:00 +28°C° 0.2 mm 2 mps 755 mmHg 50%
    02:00 +28°C° 0.4 mm 2 mps 755 mmHg 51%
    03:00 +28°C° 0.4 mm 2 mps 755 mmHg 52%
    04:00 +28°C° 0.4 mm 1 mps 755 mmHg 52%
    05:00 +29°C° 0.1 mm 1 mps 755 mmHg 49%
    06:00 +30°C° 0.1 mm 1 mps 755 mmHg 46%
    07:00 +31°C° 0.1 mm 1 mps 755 mmHg 43%
    08:00 +32°C° 0 mm 2 mps 755 mmHg 40%
    09:00 +35°C° 0 mm 2 mps 755 mmHg 37%
    10:00 +36°C° 0 mm 3 mps 755 mmHg 34%
    11:00 +36°C° 0.2 mm 3 mps 755 mmHg 33%
    12:00 +36°C° 0.2 mm 3 mps 754 mmHg 33%
    13:00 +36°C° 0.2 mm 3 mps 754 mmHg 33%
    14:00 +36°C° 0.7 mm 3 mps 754 mmHg 33%
    15:00 +36°C° 0.7 mm 3 mps 753 mmHg 33%
    16:00 +36°C° 0.7 mm 2 mps 753 mmHg 33%
    17:00 +35°C° 0.2 mm 2 mps 753 mmHg 35%
    18:00 +34°C° 0.2 mm 2 mps 753 mmHg 38%
    19:00 +31°C° 0.2 mm 2 mps 754 mmHg 41%
    20:00 +30°C° 0.4 mm 2 mps 754 mmHg 43%
    21:00 +30°C° 0.4 mm 1 mps 754 mmHg 45%
    22:00 +29°C° 0.4 mm 1 mps 754 mmHg 47%
    23:00 +29°C° 0.2 mm 1 mps 754 mmHg 48%

    25 July, Thursday

    Time Temperature Precipitation Wind Pressure Humidity
    00:00 +29°C° 0.2 mm 1 mps 754 mmHg 49%
    01:00 +28°C° 0.2 mm 1 mps 754 mmHg 50%
    02:00 +28°C° 0.1 mm 1 mps 754 mmHg 50%
    03:00 +28°C° 0.1 mm 1 mps 754 mmHg 51%
    04:00 +26°C° 0.1 mm 0 mps 754 mmHg 52%
    05:00 +28°C° 0 mm 1 mps 754 mmHg 50%
    06:00 +29°C° 0 mm 1 mps 754 mmHg 49%
    07:00 +29°C° 0 mm 1 mps 754 mmHg 47%
    08:00 +30°C° 0 mm 1 mps 754 mmHg 44%
    09:00 +32°C° 0 mm 2 mps 754 mmHg 41%
    10:00 +34°C° 0 mm 2 mps 754 mmHg 38%
    11:00 +34°C° 0 mm 3 mps 754 mmHg 38%
    12:00 +34°C° 0 mm 3 mps 754 mmHg 37%
    13:00 +34°C° 0 mm 3 mps 754 mmHg 36%
    14:00 +34°C° 0 mm 3 mps 753 mmHg 37%
    15:00 +34°C° 0 mm 3 mps 753 mmHg 37%
    16:00 +34°C° 0 mm 2 mps 753 mmHg 37%
    17:00 +32°C° 0 mm 2 mps 753 mmHg 38%
    18:00 +31°C° 0 mm 2 mps 753 mmHg 40%
    19:00 +30°C° 0 mm 2 mps 754 mmHg 42%
    20:00 +30°C° 0 mm 2 mps 754 mmHg 43%
    21:00 +29°C° 0 mm 1 mps 754 mmHg 44%
    22:00 +29°C° 0 mm 1 mps 754 mmHg 46%
    23:00 +28°C° 0.4 mm 1 mps 754 mmHg 48%
    Show more